Вернуться в каталог

STARLINK-30890

АктивенСвязьVLEO
NORAD 58362·PAYLOAD·🇺🇸 United States

Запущен Nov 18, 2023 с Cape Canaveral Space Force Station

Loading…

Ближайшие Пролёты (ближайшие 24 часа)

TLE

СвежийSource: CelesTrak SupGP

Эпоха: Sep 15, 2026, 02:17 UTC

1 58362C 23177M   26258.09562500  .00022547  00000+0  81643-3 0  2586
2 58362  43.0041   0.8887 0002027 265.9274 151.3198 15.27575531    15

Отслеживайте STARLINK-30890 в реальном времени с AllMySat

Download on the App Store